RYR9654 LMML-LPPT

Flight info

Callsign RYR9654
Flight time N/A
Altitude 38000
Route GZO M978 ASDAX DCT DOBIX DCT SONAK UM978 MORJA UA411 ANB UM134 LUXUR/N0445F370 M134 XARON/N0447F390 M134 VLC/N0317F130 N733 CJN N975 CCS DCT UPULO
Aircraft B38M/M-SADE3FGILRWY/SB1

Departure

Time 2026-04-30 12:16
Airport Malta International Airport (LMML)

Arrival

Time N/A
Airport Lisbon Humberto Delgado Airport (LPPT)
Time Latitude Longitude Altitude Speed Heading
2026-04-30 11:42 35.84857 14.49455 261 ft 0 kts 360°
2026-04-30 12:07 35.84856 14.49455 261 ft 2 kts 360°
2026-04-30 12:07 35.84831 14.49455 261 ft 3 kts 359°
2026-04-30 12:08 35.84810 14.49456 261 ft 3 kts 351°
2026-04-30 12:08 35.84788 14.49460 261 ft 4 kts 348°
2026-04-30 12:08 35.84768 14.49472 261 ft 2 kts 315°
2026-04-30 12:08 35.84756 14.49488 261 ft 0 kts 315°
2026-04-30 12:10 35.84759 14.49484 261 ft 3 kts 315°
2026-04-30 12:10 35.84803 14.49429 261 ft 14 kts 315°
2026-04-30 12:11 35.84891 14.49320 261 ft 19 kts 314°
2026-04-30 12:11 35.84904 14.49305 261 ft 3 kts 314°
2026-04-30 12:11 35.84927 14.49263 261 ft 11 kts 296°
2026-04-30 12:11 35.84918 14.49170 261 ft 12 kts 227°
2026-04-30 12:12 35.84921 14.49075 261 ft 14 kts 311°
2026-04-30 12:12 35.84978 14.48962 261 ft 17 kts 291°
2026-04-30 12:12 35.85003 14.48847 261 ft 2 kts 285°
2026-04-30 12:12 35.85004 14.48842 261 ft 0 kts 285°
2026-04-30 12:13 35.85007 14.48827 262 ft 8 kts 284°
2026-04-30 12:13 35.85047 14.48672 267 ft 27 kts 292°
2026-04-30 12:14 35.85189 14.48440 274 ft 41 kts 314°
2026-04-30 12:14 35.85377 14.48207 274 ft 34 kts 315°
2026-04-30 12:14 35.85510 14.48088 274 ft 14 kts 325°
2026-04-30 12:14 35.85522 14.48055 274 ft 1 kts 247°
2026-04-30 12:15 35.85489 14.48068 274 ft 17 kts 139°
2026-04-30 12:15 35.85267 14.48343 274 ft 73 kts 135°
2026-04-30 12:15 35.84780 14.48947 261 ft 124 kts 135°
2026-04-30 12:15 35.84083 14.49816 322 ft 158 kts 135°
2026-04-30 12:16 35.83285 14.50784 772 ft 164 kts 136°
2026-04-30 12:16 35.82293 14.51529 1237 ft 172 kts 163°
2026-04-30 12:16 35.81084 14.51535 1691 ft 181 kts 198°
2026-04-30 12:16 35.80026 14.50647 2182 ft 191 kts 231°
2026-04-30 12:17 35.79591 14.47353 3215 ft 212 kts 287°
2026-04-30 12:17 35.80362 14.45779 3810 ft 222 kts 317°
2026-04-30 12:17 35.81568 14.44537 4337 ft 237 kts 319°
2026-04-30 12:18 35.82837 14.43182 5091 ft 238 kts 317°
2026-04-30 12:18 35.84098 14.41826 5938 ft 244 kts 318°
2026-04-30 12:18 35.85397 14.40429 6623 ft 254 kts 317°
2026-04-30 12:18 35.86771 14.38946 7109 ft 269 kts 317°
2026-04-30 12:19 35.88171 14.37431 7960 ft 268 kts 317°
2026-04-30 12:19 35.89579 14.35907 8748 ft 270 kts 317°
2026-04-30 12:19 35.90983 14.34388 9555 ft 272 kts 317°
2026-04-30 12:19 35.92415 14.32837 10322 ft 277 kts 317°
2026-04-30 12:20 35.93910 14.31214 10659 ft 296 kts 317°
2026-04-30 12:20 35.95498 14.29489 11036 ft 311 kts 317°
2026-04-30 12:20 35.97142 14.27706 11702 ft 315 kts 317°
2026-04-30 12:20 35.98797 14.25909 12448 ft 318 kts 316°
2026-04-30 12:21 36.00470 14.24092 13212 ft 321 kts 316°
2026-04-30 12:21 36.02154 14.22262 13976 ft 324 kts 316°
2026-04-30 12:21 36.03664 14.20248 14665 ft 324 kts 301°
2026-04-30 12:21 36.04733 14.17785 15403 ft 327 kts 293°
2026-04-30 12:22 36.05404 14.15101 16094 ft 329 kts 284°
2026-04-30 12:22 36.06006 14.12347 16768 ft 333 kts 285°
2026-04-30 12:22 36.06618 14.09569 17456 ft 336 kts 286°
2026-04-30 12:22 36.07236 14.06770 18128 ft 339 kts 286°
2026-04-30 12:23 36.07859 14.03951 18722 ft 342 kts 286°
2026-04-30 12:23 36.08486 14.01108 19303 ft 344 kts 286°
2026-04-30 12:23 36.09119 13.98240 19877 ft 346 kts 286°
2026-04-30 12:23 36.09753 13.95358 20445 ft 349 kts 286°
2026-04-30 12:24 36.10392 13.92453 21007 ft 351 kts 286°
2026-04-30 12:24 36.11035 13.89527 21564 ft 354 kts 286°
2026-04-30 12:24 36.11681 13.86579 22105 ft 356 kts 286°
2026-04-30 12:24 36.12325 13.83640 22627 ft 359 kts 286°
2026-04-30 12:25 36.12981 13.80645 23162 ft 362 kts 286°
2026-04-30 12:25 36.13640 13.77626 23668 ft 364 kts 287°
2026-04-30 12:25 36.14302 13.74593 24094 ft 367 kts 286°
2026-04-30 12:25 36.14968 13.71538 24542 ft 368 kts 286°
2026-04-30 12:26 36.15637 13.68467 24970 ft 370 kts 286°
2026-04-30 12:26 36.16307 13.65385 25397 ft 372 kts 286°
2026-04-30 12:26 36.16981 13.62280 25812 ft 374 kts 286°
2026-04-30 12:26 36.17660 13.59148 26226 ft 376 kts 286°
2026-04-30 12:27 36.18330 13.56051 26630 ft 378 kts 286°
2026-04-30 12:27 36.19012 13.52896 27039 ft 380 kts 286°
2026-04-30 12:27 36.19698 13.49719 27430 ft 382 kts 286°
2026-04-30 12:27 36.20386 13.46532 27818 ft 384 kts 286°
2026-04-30 12:28 36.21075 13.43330 28200 ft 386 kts 286°
2026-04-30 12:28 36.21769 13.40104 28571 ft 388 kts 286°
2026-04-30 12:28 36.22463 13.36869 28939 ft 390 kts 286°
2026-04-30 12:28 36.22986 13.33593 29313 ft 392 kts 281°
2026-04-30 12:29 36.23425 13.30212 29692 ft 394 kts 281°
2026-04-30 12:29 36.23867 13.26891 29971 ft 397 kts 281°
2026-04-30 12:29 36.24315 13.23519 30302 ft 398 kts 281°
2026-04-30 12:29 36.24765 13.20116 30595 ft 400 kts 281°
2026-04-30 12:30 36.25214 13.16708 30884 ft 402 kts 281°
2026-04-30 12:30 36.25664 13.13282 31173 ft 404 kts 281°
2026-04-30 12:30 36.26117 13.09837 31462 ft 405 kts 281°
2026-04-30 12:30 36.26569 13.06384 31778 ft 406 kts 281°
2026-04-30 12:31 36.27020 13.02925 32180 ft 405 kts 281°
2026-04-30 12:31 36.27470 12.99472 32586 ft 403 kts 281°
2026-04-30 12:31 36.27910 12.96089 32982 ft 402 kts 281°
2026-04-30 12:31 36.28353 12.92679 33380 ft 400 kts 280°
2026-04-30 12:32 36.28795 12.89266 33772 ft 399 kts 280°
2026-04-30 12:32 36.29232 12.85877 34137 ft 397 kts 280°
2026-04-30 12:32 36.29663 12.82534 34451 ft 396 kts 280°
2026-04-30 12:32 36.30102 12.79117 34771 ft 395 kts 280°
2026-04-30 12:33 36.30529 12.75791 35067 ft 394 kts 280°
2026-04-30 12:33 36.30958 12.72437 35354 ft 393 kts 280°
2026-04-30 12:33 36.31388 12.69070 35642 ft 392 kts 280°
2026-04-30 12:33 36.31808 12.65774 35913 ft 391 kts 280°
2026-04-30 12:34 36.32230 12.62450 36181 ft 390 kts 280°
2026-04-30 12:34 36.32652 12.59120 36436 ft 389 kts 280°
2026-04-30 12:34 36.33072 12.55801 36686 ft 388 kts 280°
2026-04-30 12:34 36.33490 12.52491 36927 ft 388 kts 280°
2026-04-30 12:35 36.33907 12.49179 37164 ft 387 kts 279°
2026-04-30 12:35 36.34316 12.45922 37388 ft 386 kts 279°
2026-04-30 12:35 36.34729 12.42628 37606 ft 385 kts 279°
2026-04-30 12:35 36.35140 12.39344 37809 ft 385 kts 279°
2026-04-30 12:36 36.35550 12.36060 37995 ft 384 kts 279°
2026-04-30 12:36 36.35959 12.32772 38045 ft 385 kts 279°
2026-04-30 12:36 36.36765 12.26272 38033 ft 382 kts 279°
2026-04-30 12:37 36.37574 12.19725 38031 ft 383 kts 279°
2026-04-30 12:37 36.38374 12.13217 38028 ft 383 kts 279°
2026-04-30 12:38 36.39175 12.06666 38031 ft 384 kts 279°
2026-04-30 12:38 36.39974 12.00106 38026 ft 384 kts 279°
2026-04-30 12:39 36.40764 11.93583 38028 ft 384 kts 279°
2026-04-30 12:39 36.41557 11.87015 38029 ft 384 kts 279°
2026-04-30 12:40 36.42345 11.80446 38026 ft 385 kts 279°
2026-04-30 12:40 36.43133 11.73856 38033 ft 385 kts 279°
2026-04-30 12:41 36.43911 11.67306 38041 ft 385 kts 279°
2026-04-30 12:41 36.44691 11.60716 38030 ft 385 kts 279°
2026-04-30 12:42 36.45470 11.54109 38032 ft 386 kts 279°
2026-04-30 12:42 36.46240 11.47531 38029 ft 386 kts 279°
2026-04-30 12:43 36.47012 11.40913 38032 ft 386 kts 279°
2026-04-30 12:43 36.47781 11.34289 38025 ft 387 kts 279°
2026-04-30 12:44 36.48543 11.27690 38028 ft 387 kts 279°
2026-04-30 12:44 36.49301 11.21090 38029 ft 387 kts 278°
2026-04-30 12:45 36.50061 11.14443 38033 ft 388 kts 278°
2026-04-30 12:45 36.50817 11.07795 38033 ft 388 kts 278°
2026-04-30 12:46 36.51565 11.01187 38029 ft 388 kts 278°
2026-04-30 12:46 36.52314 10.94539 38028 ft 388 kts 278°
2026-04-30 12:47 36.53060 10.87871 38030 ft 389 kts 278°
2026-04-30 12:47 36.53799 10.81248 38029 ft 389 kts 278°
2026-04-30 12:48 36.54541 10.74549 38029 ft 389 kts 278°
2026-04-30 12:48 36.55273 10.67911 38028 ft 389 kts 278°
2026-04-30 12:49 36.56007 10.61221 38032 ft 390 kts 278°
2026-04-30 12:49 36.56738 10.54526 38030 ft 390 kts 278°
2026-04-30 12:50 36.57460 10.47871 38029 ft 390 kts 278°
2026-04-30 12:50 36.58186 10.41150 38025 ft 391 kts 278°
2026-04-30 12:51 36.58908 10.34432 38018 ft 391 kts 278°
2026-04-30 12:51 36.59620 10.27761 38021 ft 391 kts 278°
2026-04-30 12:52 36.60335 10.21030 38023 ft 392 kts 278°
2026-04-30 12:52 36.61043 10.14328 38022 ft 392 kts 278°